Time,TemperatureF,DewpointF,PressureIn,WindDirection,WindDirectionDegrees,WindSpeedMPH,WindSpeedGustMPH,Humidity,HourlyPrecipIn,Conditions,Clouds,dailyrainin,SoftwareType,DateUTC
2013-01-01 00:12:00,5.7,4.0,30.55,South,170,0.0,1.0,91,0.00,,,0.00,weatherlink.com 1.10,2013-01-01 07:12:00,
2013-01-01 00:27:00,6.4,5.0,30.55,South,190,0.0,1.0,92,0.00,,,0.00,weatherlink.com 1.10,2013-01-01 07:27:00,
2013-01-01 00:42:00,5.6,3.0,30.56,ESE,102,0.0,1.0,89,0.00,,,0.00,weatherlink.com 1.10,2013-01-01 07:42:00,
2013-01-01 00:57:00,6.6,5.0,30.56,SW,220,0.0,1.0,93,0.00,,,0.00,weatherlink.com 1.10,2013-01-01 07:57:00,
2013-01-01 01:12:00,7.0,5.0,30.55,SW,219,0.0,1.0,91,0.00,,,0.00,weatherlink.com 1.10,2013-01-01 08:12:00,
2013-01-01 01:27:00,3.8,2.0,30.56,East,86,0.0,1.0,91,0.00,,,0.00,weatherlink.com 1.10,2013-01-01 08:27:00,
2013-01-01 01:42:00,4.0,2.0,30.56,East,86,0.0,0.0,90,0.00,,,0.00,weatherlink.com 1.10,2013-01-01 08:42:00,
2013-01-01 01:57:00,3.8,2.0,30.57,East,86,0.0,1.0,90,0.00,,,0.00,weatherlink.com 1.10,2013-01-01 08:57:00,
2013-01-01 02:12:00,3.7,2.0,30.58,East,86,0.0,0.0,90,0.00,,,0.00,weatherlink.com 1.10,2013-01-01 09:12:00,
2013-01-01 02:27:00,4.3,2.0,30.59,WSW,240,0.0,1.0,90,0.00,,,0.00,weatherlink.com 1.10,2013-01-01 09:27:00,
2013-01-01 02:42:00,4.4,2.0,30.59,WSW,241,0.0,0.0,89,0.00,,,0.00,weatherlink.com 1.10,2013-01-01 09:42:00,
2013-01-01 02:57:00,3.3,1.0,30.60,ESE,102,0.0,0.0,91,0.00,,,0.00,weatherlink.com 1.10,2013-01-01 09:57:00,
2013-01-01 03:12:00,1.2,-2.0,30.60,ENE,74,0.0,1.0,87,0.00,,,0.00,weatherlink.com 1.10,2013-01-01 10:12:00,
2013-01-01 03:27:00,4.0,3.0,30.60,ESE,103,0.0,1.0,93,0.00,,,0.00,weatherlink.com 1.10,2013-01-01 10:27:00,
2013-01-01 03:42:00,3.8,2.0,30.61,ESE,103,0.0,1.0,90,0.00,,,0.00,weatherlink.com 1.10,2013-01-01 10:42:00,
2013-01-01 03:57:00,3.2,1.0,30.61,ESE,108,0.0,0.0,90,0.00,,,0.00,weatherlink.com 1.10,2013-01-01 10:57:00,
2013-01-01 04:12:00,2.9,0.0,30.62,ENE,70,1.0,2.0,87,0.00,,,0.00,weatherlink.com 1.10,2013-01-01 11:12:00,
2013-01-01 04:28:00,1.0,-2.0,30.62,ENE,64,0.0,0.0,89,0.00,,,0.00,weatherlink.com 1.10,2013-01-01 11:28:00,
2013-01-01 04:43:00,2.2,0.0,30.61,ENE,63,0.0,1.0,90,0.00,,,0.00,weatherlink.com 1.10,2013-01-01 11:43:00,
2013-01-01 04:58:00,1.8,-1.0,30.62,ENE,64,0.0,1.0,87,0.00,,,0.00,weatherlink.com 1.10,2013-01-01 11:58:00,
2013-01-01 05:13:00,1.9,0.0,30.62,ENE,63,0.0,0.0,90,0.00,,,0.00,weatherlink.com 1.10,2013-01-01 12:13:00,
2013-01-01 05:28:00,0.7,-2.0,30.61,ENE,64,0.0,0.0,88,0.00,,,0.00,weatherlink.com 1.10,2013-01-01 12:28:00,
2013-01-01 05:43:00,1.3,-1.0,30.62,ENE,64,0.0,1.0,89,0.00,,,0.00,weatherlink.com 1.10,2013-01-01 12:43:00,
2013-01-01 05:58:00,1.8,-1.0,30.64,WSW,240,0.0,0.0,89,0.00,,,0.00,weatherlink.com 1.10,2013-01-01 12:58:00,
2013-01-01 06:13:00,1.8,-1.0,30.63,WSW,240,0.0,0.0,88,0.00,,,0.00,weatherlink.com 1.10,2013-01-01 13:13:00,
2013-01-01 06:28:00,0.6,-2.0,30.64,East,93,1.0,1.0,87,0.00,,,0.00,weatherlink.com 1.10,2013-01-01 13:28:00,
2013-01-01 06:43:00,-0.4,-3.0,30.64,East,84,0.0,1.0,88,0.00,,,0.00,weatherlink.com 1.10,2013-01-01 13:43:00,
2013-01-01 06:58:00,0.5,-2.0,30.64,WSW,238,1.0,1.0,89,0.00,,,0.00,weatherlink.com 1.10,2013-01-01 13:58:00,
2013-01-01 07:13:00,0.3,-2.0,30.64,SW,233,0.0,0.0,88,0.00,,,0.00,weatherlink.com 1.10,2013-01-01 14:13:00,
2013-01-01 07:28:00,0.1,-3.0,30.65,SW,217,0.0,0.0,88,0.00,,,0.00,weatherlink.com 1.10,2013-01-01 14:28:00,
2013-01-01 07:43:00,-0.2,-3.0,30.66,East,94,0.0,1.0,88,0.00,,,0.00,weatherlink.com 1.10,2013-01-01 14:43:00,
2013-01-01 07:59:00,-0.9,-4.0,30.67,East,101,0.0,0.0,88,0.00,,,0.00,weatherlink.com 1.10,2013-01-01 14:59:00,
2013-01-01 08:14:00,-0.7,-4.0,30.67,East,98,0.0,1.0,87,0.00,,,0.00,weatherlink.com 1.10,2013-01-01 15:14:00,
2013-01-01 08:29:00,-1.1,-4.0,30.68,East,90,0.0,0.0,88,0.00,,,0.00,weatherlink.com 1.10,2013-01-01 15:29:00,
2013-01-01 08:44:00,-1.0,-4.0,30.69,East,91,0.0,0.0,87,0.00,,,0.00,weatherlink.com 1.10,2013-01-01 15:44:00,
2013-01-01 08:59:00,-0.4,-3.0,30.70,SW,221,0.0,0.0,88,0.00,,,0.00,weatherlink.com 1.10,2013-01-01 15:59:00,
2013-01-01 09:14:00,-1.3,-5.0,30.71,East,82,0.0,2.0,86,0.00,,,0.00,weatherlink.com 1.10,2013-01-01 16:14:00,
2013-01-01 09:29:00,-0.6,-3.0,30.70,East,98,1.0,2.0,88,0.00,,,0.00,weatherlink.com 1.10,2013-01-01 16:29:00,
2013-01-01 09:44:00,0.3,-2.0,30.70,East,79,0.0,2.0,88,0.00,,,0.00,weatherlink.com 1.10,2013-01-01 16:44:00,
2013-01-01 09:59:00,4.0,1.0,30.70,SW,228,0.0,1.0,87,0.00,,,0.00,weatherlink.com 1.10,2013-01-01 16:59:00,
2013-01-01 10:14:00,4.1,0.0,30.71,SW,228,1.0,1.0,84,0.00,,,0.00,weatherlink.com 1.10,2013-01-01 17:14:00,
2013-01-01 10:29:00,4.3,1.0,30.72,SW,218,0.0,2.0,85,0.00,,,0.00,weatherlink.com 1.10,2013-01-01 17:29:00,
2013-01-01 10:44:00,4.6,1.0,30.72,East,79,1.0,2.0,85,0.00,,,0.00,weatherlink.com 1.10,2013-01-01 17:44:00,
2013-01-01 10:59:00,6.5,3.0,30.72,WNW,302,0.0,2.0,85,0.00,,,0.00,weatherlink.com 1.10,2013-01-01 17:59:00,
2013-01-01 11:15:00,6.8,4.0,30.72,East,86,2.0,2.0,86,0.00,,,0.00,weatherlink.com 1.10,2013-01-01 18:15:00,
2013-01-01 11:30:00,8.7,5.0,30.72,ENE,75,2.0,2.0,85,0.00,,,0.00,weatherlink.com 1.10,2013-01-01 18:30:00,
2013-01-01 11:45:00,8.1,5.0,30.71,East,80,0.0,2.0,85,0.00,,,0.00,weatherlink.com 1.10,2013-01-01 18:45:00,
2013-01-01 12:00:00,12.0,8.0,30.71,WSW,239,1.0,3.0,83,0.00,,,0.00,weatherlink.com 1.10,2013-01-01 19:00:00,
2013-01-01 12:15:00,13.5,10.0,30.70,East,100,0.0,2.0,85,0.00,,,0.00,weatherlink.com 1.10,2013-01-01 19:15:00,
2013-01-01 12:30:00,12.6,8.0,30.69,ENE,72,0.0,1.0,81,0.00,,,0.00,weatherlink.com 1.10,2013-01-01 19:30:00,
2013-01-01 12:45:00,14.9,11.0,30.68,SW,214,1.0,1.0,83,0.00,,,0.00,weatherlink.com 1.10,2013-01-01 19:45:00,
2013-01-01 13:00:00,13.3,7.0,30.68,ENE,69,2.0,3.0,77,0.00,,,0.00,weatherlink.com 1.10,2013-01-01 20:00:00,
2013-01-01 13:15:00,11.3,7.0,30.67,East,96,2.0,3.0,81,0.00,,,0.00,weatherlink.com 1.10,2013-01-01 20:15:00,
2013-01-01 13:30:00,11.2,7.0,30.67,East,93,0.0,2.0,84,0.00,,,0.00,weatherlink.com 1.10,2013-01-01 20:30:00,
2013-01-01 13:45:00,12.4,8.0,30.67,ENE,67,1.0,2.0,82,0.00,,,0.00,weatherlink.com 1.10,2013-01-01 20:45:00,
2013-01-01 14:00:00,12.3,8.0,30.66,ENE,77,1.0,3.0,82,0.00,,,0.00,weatherlink.com 1.10,2013-01-01 21:00:00,
2013-01-01 14:15:00,13.4,9.0,30.66,SW,232,1.0,2.0,83,0.00,,,0.00,weatherlink.com 1.10,2013-01-01 21:15:00,
2013-01-01 14:30:00,14.2,10.0,30.67,SW,217,0.0,2.0,82,0.00,,,0.00,weatherlink.com 1.10,2013-01-01 21:30:00,
2013-01-01 14:46:00,13.3,9.0,30.66,ESE,103,1.0,3.0,81,0.00,,,0.00,weatherlink.com 1.10,2013-01-01 21:46:00,
2013-01-01 15:01:00,13.6,9.0,30.66,East,101,0.0,1.0,82,0.00,,,0.00,weatherlink.com 1.10,2013-01-01 22:01:00,
2013-01-01 15:16:00,14.6,10.0,30.66,SW,221,2.0,2.0,82,0.00,,,0.00,weatherlink.com 1.10,2013-01-01 22:16:00,
2013-01-01 15:31:00,14.5,10.0,30.67,SSE,152,0.0,1.0,82,0.00,,,0.00,weatherlink.com 1.10,2013-01-01 22:31:00,
2013-01-01 15:46:00,13.0,9.0,30.67,ESE,111,1.0,3.0,82,0.00,,,0.00,weatherlink.com 1.10,2013-01-01 22:46:00,
2013-01-01 16:01:00,13.0,9.0,30.67,ESE,112,0.0,0.0,85,0.00,,,0.00,weatherlink.com 1.10,2013-01-01 23:01:00,
2013-01-01 16:16:00,13.4,9.0,30.67,SW,233,0.0,1.0,84,0.00,,,0.00,weatherlink.com 1.10,2013-01-01 23:16:00,
2013-01-01 16:31:00,12.9,9.0,30.67,ESE,122,0.0,1.0,85,0.00,,,0.00,weatherlink.com 1.10,2013-01-01 23:31:00,
2013-01-01 16:46:00,12.2,9.0,30.68,SW,232,0.0,0.0,86,0.00,,,0.00,weatherlink.com 1.10,2013-01-01 23:46:00,
2013-01-01 17:01:00,11.9,9.0,30.68,SW,231,0.0,0.0,86,0.00,,,0.00,weatherlink.com 1.10,2013-01-02 00:01:00,
2013-01-01 17:16:00,11.1,8.0,30.69,SW,231,0.0,1.0,88,0.00,,,0.00,weatherlink.com 1.10,2013-01-02 00:16:00,
2013-01-01 17:31:00,10.2,8.0,30.69,SW,231,0.0,1.0,89,0.00,,,0.00,weatherlink.com 1.10,2013-01-02 00:31:00,
2013-01-01 17:46:00,9.6,7.0,30.70,SW,231,0.0,1.0,89,0.00,,,0.00,weatherlink.com 1.10,2013-01-02 00:46:00,
2013-01-01 18:01:00,8.7,6.0,30.70,SW,231,0.0,1.0,90,0.00,,,0.00,weatherlink.com 1.10,2013-01-02 01:01:00,
2013-01-01 18:17:00,8.5,6.0,30.70,SW,229,0.0,1.0,90,0.00,,,0.00,weatherlink.com 1.10,2013-01-02 01:17:00,
2013-01-01 18:32:00,8.2,6.0,30.70,SW,228,0.0,0.0,91,0.00,,,0.00,weatherlink.com 1.10,2013-01-02 01:32:00,
2013-01-01 18:47:00,7.9,6.0,30.70,NE,56,0.0,1.0,91,0.00,,,0.00,weatherlink.com 1.10,2013-01-02 01:47:00,
2013-01-01 19:02:00,8.5,6.0,30.70,NE,56,0.0,0.0,91,0.00,,,0.00,weatherlink.com 1.10,2013-01-02 02:02:00,
2013-01-01 19:17:00,8.3,6.0,30.70,NE,56,0.0,0.0,91,0.00,,,0.00,weatherlink.com 1.10,2013-01-02 02:17:00,
2013-01-01 19:32:00,7.6,6.0,30.71,NE,56,0.0,0.0,91,0.00,,,0.00,weatherlink.com 1.10,2013-01-02 02:32:00,
2013-01-01 19:47:00,7.9,6.0,30.71,NE,56,0.0,0.0,91,0.00,,,0.00,weatherlink.com 1.10,2013-01-02 02:47:00,
2013-01-01 20:02:00,7.5,6.0,30.71,NE,56,0.0,0.0,92,0.00,,,0.00,weatherlink.com 1.10,2013-01-02 03:02:00,
2013-01-01 20:17:00,6.5,4.0,30.71,ENE,57,0.0,1.0,89,0.00,,,0.00,weatherlink.com 1.10,2013-01-02 03:17:00,
2013-01-01 20:32:00,6.9,5.0,30.71,East,82,0.0,1.0,91,0.00,,,0.00,weatherlink.com 1.10,2013-01-02 03:32:00,
2013-01-01 20:47:00,7.3,5.0,30.72,East,82,0.0,0.0,91,0.00,,,0.00,weatherlink.com 1.10,2013-01-02 03:47:00,
2013-01-01 21:02:00,7.2,5.0,30.72,SW,236,0.0,1.0,91,0.00,,,0.00,weatherlink.com 1.10,2013-01-02 04:02:00,
2013-01-01 21:17:00,7.0,5.0,30.71,SW,236,0.0,1.0,91,0.00,,,0.00,weatherlink.com 1.10,2013-01-02 04:17:00,
2013-01-01 21:33:00,6.4,4.0,30.72,SW,236,0.0,0.0,89,0.00,,,0.00,weatherlink.com 1.10,2013-01-02 04:33:00,
2013-01-01 21:48:00,6.1,4.0,30.72,SW,236,0.0,1.0,90,0.00,,,0.00,weatherlink.com 1.10,2013-01-02 04:48:00,
2013-01-01 22:03:00,7.6,6.0,30.72,SW,236,1.0,1.0,93,0.00,,,0.00,weatherlink.com 1.10,2013-01-02 05:03:00,
2013-01-01 22:18:00,6.1,3.0,30.71,ESE,110,1.0,1.0,87,0.00,,,0.00,weatherlink.com 1.10,2013-01-02 05:18:00,
2013-01-01 22:33:00,5.6,4.0,30.72,ESE,110,0.0,1.0,91,0.00,,,0.00,weatherlink.com 1.10,2013-01-02 05:33:00,
2013-01-01 22:48:00,5.4,3.0,30.72,East,81,0.0,2.0,88,0.00,,,0.00,weatherlink.com 1.10,2013-01-02 05:48:00,
2013-01-01 23:03:00,6.1,4.0,30.72,East,81,0.0,1.0,91,0.00,,,0.00,weatherlink.com 1.10,2013-01-02 06:03:00,
2013-01-01 23:18:00,6.5,5.0,30.72,East,80,0.0,1.0,91,0.00,,,0.00,weatherlink.com 1.10,2013-01-02 06:18:00,
2013-01-01 23:33:00,6.2,4.0,30.72,East,80,0.0,0.0,90,0.00,,,0.00,weatherlink.com 1.10,2013-01-02 06:33:00,
2013-01-01 23:48:00,6.3,4.0,30.72,East,81,0.0,0.0,90,0.00,,,0.00,weatherlink.com 1.10,2013-01-02 06:48:00,